Change the Weather History Date:

Thursday, March 27, 2014

  Actual Average Record
Temperature  
Mean Temperature 34 °F -  
Max Temperature 36 °F 41 °F 73 °F (1910)
Min Temperature 29 °F 19 °F -15 °F (1927)
Degree Days  
Heating Degree Days 32    
Moisture  
Dew Point 30 °F    
Average Humidity 87    
Maximum Humidity 94    
Minimum Humidity 65    
Precipitation  
Precipitation 0.25 in - - ()
Sea Level Pressure  
Sea Level Pressure 29.58 in    
Wind  
Wind Speed 9 mph (SSE)    
Max Wind Speed 15 mph    
Max Gust Speed 21 mph    
Visibility 5 miles    
Events Rain , Snow    
Averages and records for this station are not official NWS values.
T = Trace of Precipitation, MM = Missing Value Source: NWS Daily Summary

Daily Weather History Graph

Daily Weather History Graph

Search for Another Location

Airport or City:

Trip Planner

Search our weather history database for the weather conditions in past years. The results will help you decide how hot, cold, wet, or windy it might be!

Date:

Astronomy

Mar. 27, 2014 Rise Set
Actual Time 6:48 AM CDT 7:20 PM CDT
Civil Twilight 6:18 AM CDT 7:50 PM CDT
Nautical Twilight 5:43 AM CDT 8:26 PM CDT
Astronomical Twilight 5:06 AM CDT 9:03 PM CDT
Moon 4:50 AM CDT (3/27) 3:59 PM CDT (3/27)
Length of Visible Light 13h 32m
Length of Day
12h 32m
Waning Crescent, 13% of the Moon is Illuminated
Mar 27
Waning Crescent
Mar 30
New
Apr 7
First Quarter
Apr 15
Full
Apr 22
Last Quarter

Hourly Weather History & Observations

Time (CDT) Temp. Windchill Dew Point Humidity Pressure Visibility Wind Dir Wind Speed Gust Speed Precip Events Conditions
12:15 AM 31.3 °F 21.6 °F 20.7 °F 65% 29.74 in 10.0 mi South 12.7 mph 17.3 mph N/A   Overcast
12:35 AM 31.8 °F 23.9 °F 21.7 °F 66% 29.73 in 10.0 mi SSE 9.2 mph 20.7 mph N/A   Overcast
12:55 AM 31.8 °F 23.3 °F 22.8 °F 69% 29.72 in 10.0 mi SSE 10.4 mph 19.6 mph N/A   Overcast
1:15 AM 31.8 °F 22.8 °F 23.4 °F 71% 29.71 in 10.0 mi SSE 11.5 mph - N/A   Overcast
1:35 AM 31.8 °F 21.4 °F 23.9 °F 73% 29.70 in 10.0 mi South 15.0 mph 20.7 mph N/A   Overcast
1:55 AM 31.8 °F 21.8 °F 24.8 °F 75% 29.69 in 10.0 mi South 13.8 mph 17.3 mph N/A   Overcast
2:15 AM 31.8 °F 22.3 °F 24.8 °F 75% 29.68 in 10.0 mi SSE 12.7 mph 19.6 mph N/A   Overcast
2:35 AM 31.8 °F 22.8 °F 24.8 °F 75% 29.68 in 10.0 mi South 11.5 mph 18.4 mph N/A   Overcast
2:55 AM 31.8 °F 22.3 °F 24.8 °F 75% 29.66 in 10.0 mi South 12.7 mph 20.7 mph N/A   Overcast
3:15 AM 31.8 °F 22.3 °F 24.8 °F 75% 29.66 in 10.0 mi South 12.7 mph 20.7 mph N/A   Overcast
3:35 AM 31.8 °F 21.4 °F 24.8 °F 75% 29.65 in 10.0 mi South 15.0 mph 20.7 mph N/A   Overcast
3:55 AM 31.8 °F 22.3 °F 24.8 °F 75% 29.64 in 10.0 mi South 12.7 mph 18.4 mph N/A   Overcast
4:15 AM 31.8 °F 22.8 °F 24.8 °F 75% 29.64 in 10.0 mi South 11.5 mph 16.1 mph N/A   Overcast
4:35 AM 31.8 °F 22.8 °F 24.8 °F 75% 29.63 in 10.0 mi South 11.5 mph 18.4 mph N/A   Overcast
4:55 AM 31.8 °F 23.9 °F 25.3 °F 77% 29.63 in 10.0 mi South 9.2 mph 16.1 mph N/A   Overcast
5:15 AM 31.8 °F 23.9 °F 25.3 °F 77% 29.62 in 10.0 mi SSE 9.2 mph - N/A   Overcast
5:35 AM 31.8 °F 23.3 °F 25.7 °F 78% 29.62 in 10.0 mi South 10.4 mph 17.3 mph N/A   Overcast
5:55 AM 31.8 °F 23.3 °F 26.1 °F 79% 29.62 in 10.0 mi South 10.4 mph 16.1 mph N/A   Overcast
6:15 AM 31.8 °F 24.6 °F 26.6 °F 81% 29.62 in 10.0 mi South 8.1 mph - N/A   Overcast
6:35 AM 31.8 °F 24.6 °F 26.4 °F 80% 29.62 in 10.0 mi South 8.1 mph 16.1 mph N/A   Overcast
6:55 AM 31.8 °F 24.6 °F 26.4 °F 80% 29.62 in 10.0 mi South 8.1 mph - N/A   Overcast
7:15 AM 31.8 °F 23.9 °F 26.6 °F 81% 29.61 in 10.0 mi South 9.2 mph - N/A   Overcast
7:35 AM 31.8 °F 23.9 °F 27.5 °F 84% 29.61 in 10.0 mi South 9.2 mph - N/A   Overcast
7:55 AM 31.8 °F 23.3 °F 28.2 °F 87% 29.61 in 5.0 mi South 10.4 mph - N/A   Overcast
8:15 AM 31.8 °F 23.9 °F 29.1 °F 90% 29.61 in 2.5 mi South 9.2 mph - N/A   Overcast
8:35 AM 31.8 °F 24.6 °F 29.3 °F 90% 29.61 in 2.0 mi South 8.1 mph - N/A   Overcast
8:55 AM 31.8 °F 26.2 °F 29.7 °F 92% 29.60 in 1.8 mi South 5.8 mph - N/A   Overcast
9:15 AM 32.0 °F 24.2 °F 29.8 °F 92% 29.60 in 1.8 mi South 9.2 mph - N/A   Overcast
9:35 AM 32.7 °F 27.3 °F 30.9 °F 93% 29.59 in 1.8 mi South 5.8 mph - N/A   Overcast
9:55 AM 32.9 °F 25.9 °F 31.1 °F 93% 29.59 in 1.8 mi South 8.1 mph - N/A   Overcast
10:15 AM 34.0 °F 27.2 °F 32.0 °F 92% 29.59 in 1.8 mi South 8.1 mph - N/A   Overcast
10:35 AM 34.0 °F 26.0 °F 32.0 °F 92% 29.59 in 1.5 mi South 10.4 mph - N/A   Overcast
10:55 AM 34.0 °F 28.0 °F 32.0 °F 92% 29.59 in 1.8 mi South 6.9 mph 10.4 mph N/A   Overcast
11:15 AM 34.0 °F 28.8 °F 32.0 °F 92% 29.58 in 1.8 mi South 5.8 mph - N/A   Overcast
11:35 AM 34.0 °F 26.6 °F 32.0 °F 92% 29.58 in 2.0 mi South 9.2 mph - N/A   Overcast
11:55 AM 36.3 °F 30.1 °F 34.5 °F 93% 29.57 in 2.5 mi South 8.1 mph - N/A   Overcast
12:15 PM 36.5 °F 31.0 °F 34.3 °F 92% 29.57 in 3.0 mi South 6.9 mph - N/A   Overcast
12:35 PM 36.5 °F 31.0 °F 34.2 °F 91% 29.56 in 4.0 mi South 6.9 mph - N/A   Overcast
12:55 PM 36.5 °F 31.0 °F 34.2 °F 91% 29.55 in 5.0 mi South 6.9 mph - N/A   Overcast
1:15 PM 36.5 °F 30.3 °F 34.0 °F 91% 29.54 in 5.0 mi South 8.1 mph - N/A   Overcast
1:35 PM 36.5 °F 31.0 °F 33.8 °F 90% 29.53 in 7.0 mi South 6.9 mph - N/A   Overcast
1:55 PM 36.5 °F 31.8 °F 33.4 °F 89% 29.52 in 7.0 mi SSE 5.8 mph - N/A   Overcast
2:15 PM 36.5 °F 31.8 °F 33.8 °F 90% 29.52 in 5.0 mi SSE 5.8 mph - N/A   Overcast
2:35 PM 36.5 °F 32.7 °F 33.8 °F 90% 29.53 in 2.5 mi South 4.6 mph - N/A   Overcast
2:55 PM 36.5 °F 33.9 °F 34.2 °F 91% 29.52 in 1.2 mi SSE 3.5 mph - N/A   Drizzle
3:15 PM 36.5 °F 33.9 °F 34.7 °F 93% 29.50 in 1.5 mi ESE 3.5 mph - N/A   Light Drizzle
3:35 PM 36.5 °F - 34.7 °F 93% 29.51 in 1.8 mi Calm Calm - N/A Rain Light Rain
3:55 PM 36.5 °F - 34.7 °F 93% 29.51 in 0.8 mi Calm Calm - 0.02 in Snow Light Snow
4:15 PM 34.0 °F - 32.2 °F 93% 29.51 in 1.5 mi Calm Calm - 0.01 in Snow Light Snow
4:35 PM 34.0 °F - 32.2 °F 93% 29.50 in 0.5 mi Calm Calm - 0.01 in Snow Light Snow
4:55 PM 34.0 °F - 32.4 °F 94% 29.51 in 0.2 mi Calm Calm - 0.05 in Snow Snow
5:15 PM 34.0 °F - 32.4 °F 94% 29.52 in 0.2 mi Calm Calm - 0.04 in Snow Snow
5:35 PM 34.0 °F - 32.4 °F 94% 29.51 in 0.2 mi Calm Calm - 0.07 in Snow Snow
5:55 PM 34.0 °F 31.0 °F 32.4 °F 94% 29.50 in 0.5 mi NNE 3.5 mph - 0.10 in Snow Snow
6:15 PM 34.0 °F 31.0 °F 32.4 °F 94% 29.50 in 0.5 mi NNE 3.5 mph - 0.03 in Snow Light Snow
6:35 PM 34.0 °F - 32.5 °F 94% 29.50 in 1.0 mi Calm Calm - 0.03 in Snow Light Snow
6:55 PM 34.0 °F 31.0 °F 32.5 °F 94% 29.50 in 1.0 mi NE 3.5 mph - 0.04 in Snow Light Snow
7:15 PM 34.0 °F - 32.5 °F 94% 29.50 in 0.8 mi Calm Calm - 0.01 in Snow Snow
7:35 PM 34.0 °F - 32.5 °F 94% 29.50 in 1.2 mi Calm Calm - 0.02 in Snow Light Snow
7:55 PM 34.0 °F - 32.5 °F 94% 29.50 in 1.2 mi Calm Calm - 0.02 in Snow Light Snow
8:15 PM 34.0 °F 31.0 °F 32.5 °F 94% 29.50 in 1.0 mi NNE 3.5 mph - 0.01 in Snow Snow
8:35 PM 34.0 °F 31.0 °F 32.5 °F 94% 29.51 in 2.0 mi North 3.5 mph - 0.02 in Snow Light Snow
8:55 PM 34.0 °F 28.8 °F 32.5 °F 94% 29.51 in 4.0 mi NNE 5.8 mph - 0.02 in Snow Light Snow
9:15 PM 34.0 °F 27.2 °F 32.4 °F 94% 29.51 in 7.0 mi NNE 8.1 mph - N/A Snow Light Snow
9:35 PM 34.0 °F 26.6 °F 32.4 °F 94% 29.52 in 7.0 mi North 9.2 mph - N/A   Overcast
9:55 PM 34.0 °F 28.0 °F 32.2 °F 93% 29.53 in 5.0 mi North 6.9 mph - N/A Snow Light Snow
10:15 PM 32.9 °F 24.7 °F 31.1 °F 93% 29.54 in 5.0 mi North 10.4 mph - N/A Snow Light Snow
10:35 PM 31.8 °F 22.3 °F 29.7 °F 92% 29.56 in 4.0 mi North 12.7 mph 17.3 mph N/A Snow Light Snow
10:55 PM 31.8 °F 23.3 °F 29.7 °F 92% 29.57 in 4.0 mi North 10.4 mph - N/A Snow Light Snow
11:15 PM 31.8 °F 22.8 °F 29.3 °F 90% 29.57 in 5.0 mi North 11.5 mph - N/A   Overcast
11:35 PM 31.8 °F 22.8 °F 29.3 °F 90% 29.57 in 7.0 mi North 11.5 mph 19.6 mph N/A   Overcast
11:55 PM 29.3 °F 20.8 °F 26.6 °F 90% 29.57 in 7.0 mi North 9.2 mph - N/A   Overcast